Location: Rimouski
(48.4330°N, 68.5170°W)
Time: 17:18:32
(UTC-04:00)

Daily predictions for brighter satellites

Satellite Brightness Start Highest point End
(mag) Time Altitude Azimuth Time Altitude Azimuth Time Altitude Azimuth
ATLAS 3B R/B 4.4 21:11:14 10° NW 21:17:26 28° NNE 21:23:19 10° ENE
Cosmos 1743 Rocket 4.2 21:15:15 10° SSW 21:19:42 63° WNW 21:24:09 10° N
ARGOS 3.5 21:15:20 10° SE 21:20:34 54° ENE 21:25:50 10° N
MetOp-A 4.2 21:15:14 10° SSE 21:20:35 86° ENE 21:25:59 10° NNW
Cosmos 1437 3.5 21:20:29 10° SSE 21:23:31 35° E 21:26:34 10° NNE
deb Chang Zheng 4 4.1 21:19:35 10° N 21:23:54 66° WNW 21:28:12 10° SSW
H-2A R/B 3.2 21:20:48 10° SE 21:25:32 33° ENE 21:30:22 10° N
Cosmos 1500 Rocket 3.8 21:22:04 10° SSW 21:26:26 76° W 21:30:52 10° N
Cosmos 2219 4.0 21:23:32 10° SSE 21:28:32 32° ESE 21:33:33 10° NE
Cosmos 2322 3.8 21:27:03 10° NNW 21:32:48 81° WSW 21:38:30 10° SSE
ATLAS CENTAUR R/B 4.0 21:32:28 10° WNW 21:34:41 14° WSW 21:36:49 10° SW
SL-08 RB Rocket 3.9 21:30:53 10° SSE 21:35:15 56° ENE 21:39:40 10° N
Cosmos 2237 Rocket 3.7 21:30:36 10° NNW 21:35:23 27° NE 21:40:10 10° ESE
Cosmos 1271 Rocket 4.2 21:33:14 10° NNE 21:36:24 24° ENE 21:39:34 10° SE
SPOT 1/Viking Rocket 3.6 21:32:15 10° SSE 21:37:24 85° ENE 21:42:36 10° NNW
Cosmos 1441 Rocket 4.1 21:33:47 10° SSW 21:37:28 51° WNW 21:41:10 10° N
Cosmos 2322 Rocket 3.8 21:33:52 10° NW 21:38:36 29° WSW 21:43:19 10° SSW
Cosmos 1680 Rocket 3.6 21:33:40 10° NNW 21:38:56 81° WSW 21:44:11 10° SSE
Cosmos 923 Rocket 4.4 21:37:02 10° NNW 21:42:11 60° WSW 21:47:16 10° S
Cosmos 1726 2.7 21:40:52 10° N 21:44:30 43° ENE 21:47:47 12° SSE
SL-16 R/B 4.0 21:43:13 10° NW 21:47:50 26° WSW 21:52:27 10° SSW
Cosmos 304 Rocket 4.2 21:44:37 10° NNW 21:49:24 62° WSW 21:54:08 10° S
Cosmos 2360 Rocket 2.6 21:44:18 10° NW 21:49:52 60° WSW 21:55:24 10° S
Cosmos 2315 Rocket 4.0 21:44:19 10° N 21:50:36 88° W 21:56:48 10° S
USA 245 2.7 21:49:05 10° S 21:51:44 55° WSW 21:54:04 10° NNW
CZ-4B R/B 3.6 21:46:30 10° NNE 21:51:50 78° ESE 21:57:04 10° SSW
NOAA 11 4.2 21:49:45 10° SSE 21:55:12 87° WSW 22:00:42 10° NNW
AVUM R/B 2.6 21:55:08 10° SSW 21:57:29 78° WNW 22:00:06 10° NNE
Cosmos 1898 Rocket 4.3 21:53:04 10° SSE 21:57:31 31° E 22:02:04 10° NE
Meteor 1-11 4.4 21:52:16 10° S 21:57:54 57° E 22:03:30 10° NNE
Cosmos 2266 Rocket 4.4 21:54:01 10° SSW 22:00:16 66° WNW 22:06:29 10° N
Landsat 7 3.9 21:56:09 12° SSE 22:00:32 72° ENE 22:05:18 10° N
CARTOSAT-1 3.8 22:00:12 14° SSE 22:03:48 56° ENE 22:08:03 10° N
USA 229 DEB 3.8 22:00:12 10° SW 22:07:09 85° NW 22:14:14 10° NE
USA 229 3.8 22:00:18 10° SW 22:07:15 85° NW 22:14:21 10° NE
Cosmos 1633 Rocket 3.3 22:05:12 12° SSE 22:09:05 52° E 22:13:21 10° NNE
Spot 4 4.3 22:05:27 14° SE 22:09:24 51° ENE 22:14:07 10° N
Sich 1 3.2 22:05:33 12° S 22:09:36 56° E 22:13:56 10° NNE
Cosmos 292 Rocket 4.0 22:07:25 10° NNW 22:12:11 62° ENE 22:15:51 16° SE
Meteor 2-10 4.5 22:08:37 10° N 22:14:14 60° ENE 22:18:50 16° SSE
Terra 1.9 22:12:30 15° SSE 22:16:24 73° ENE 22:21:10 10° N
Cosmos 2151 3.9 22:12:33 10° SSW 22:16:37 48° WNW 22:20:43 10° N
Cosmos 1674 4.5 22:13:26 10° SW 22:16:54 32° WNW 22:20:24 10° N
Cosmos 2227 Rocket 3.5 22:15:59 15° SE 22:18:51 22° E 22:23:07 10° NE
Cosmos 2333 Rocket 2.7 22:14:54 10° NNW 22:20:33 55° ENE 22:25:11 15° SE
USA 32 4.0 22:16:16 10° N 22:21:34 81° E 22:25:57 15° S
Meteor 1-4 Rocket 2.6 22:17:45 10° N 22:21:35 80° E 22:24:10 19° SSE
Cosmos 1300 3.3 22:18:01 10° NNW 22:21:47 53° W 22:25:08 13° S
Cosmos 1805 Rocket 3.8 22:17:53 10° SSW 22:22:20 72° W 22:26:48 10° N
CZ-4 R/B 4.1 22:17:24 10° NNE 22:22:25 77° WNW 22:27:17 10° SSW
SeaSat 1 3.4 22:18:40 12° ESE 22:22:54 40° NE 22:27:29 10° NNW
Nadezhda 1 Rocket 4.1 22:17:03 10° N 22:23:05 61° ENE 22:27:49 17° SSE
SL-16 R/B 3.6 22:21:37 10° NNW 22:26:34 29° NE 22:31:28 10° ESE
Cosmos 1626 3.4 22:25:01 19° SE 22:26:45 27° E 22:29:57 10° NNE
NOSS 3-1 (A) 3.8 22:21:12 10° S 22:26:47 44° ESE 22:32:57 10° NE
COSMOS 2428 3.1 22:26:36 10° NW 22:32:09 56° WSW 22:36:34 16° S
Cosmos 1346 4.3 22:31:53 23° ESE 22:32:44 26° E 22:35:22 10° NE
Lacrosse 4 Rocket 3.4 22:30:31 10° NNW 22:34:04 23° NE 22:37:40 10° E
CZ-4C R/B 4.0 22:31:52 15° SSW 22:34:33 41° W 22:37:52 10° NNW
Cosmos 1869 4.0 22:31:35 10° N 22:35:29 44° ENE 22:37:47 21° SE
Cosmos 1745 Rocket 4.0 22:32:33 14° S 22:37:56 71° E 22:44:06 10° NNE
SL-08 R/B 4.5 22:35:14 12° S 22:41:02 85° E 22:47:22 10° N
Cosmos 1666 Rocket 4.1 22:40:04 10° SSW 22:44:23 58° WNW 22:48:46 10° N
Cosmos 1455 2.2 22:41:05 10° N 22:44:52 67° E 22:46:54 26° SSE
Cosmos 2297 Rocket 3.3 22:43:59 19° SE 22:46:24 26° ESE 22:50:58 10° NE
Cosmos 2298 Rocket 4.0 22:42:31 10° SSW 22:47:51 88° WNW 22:53:13 10° NNE
Cosmos 2058 4.3 22:44:14 10° SW 22:48:01 36° WNW 22:51:50 10° N
ATLAS 2AS CENTAUR R/B 3.7 22:45:17 18° SSE 22:49:42 32° ESE 22:56:34 10° NE
Cosmos 2219 Rocket 2.2 22:47:24 10° NNW 22:52:59 73° WSW 22:56:41 22° SSE
COSMOS 2455 3.5 22:48:09 10° NNW 22:54:01 50° NE 22:59:00 14° ESE
Cosmos 1703 Rocket 4.4 22:53:29 10° N 22:57:35 39° ENE 22:59:50 22° SE
Cosmos 1470 Rocket 3.4 22:54:47 21° S 22:57:37 83° E 23:01:58 10° N
GEOS 3 Rocket 3.8 22:54:34 17° SE 22:58:34 70° NE 23:03:44 10° NW
Cosmos 1933 Rocket 3.5 22:56:12 21° S 22:59:09 83° E 23:03:39 10° N
COS B Rocket 4.2 22:56:51 10° NNE 23:00:07 32° E 23:01:31 25° SE
Cosmos 1937 Rocket 3.4 22:56:44 15° SSW 23:01:02 77° ESE 23:06:16 10° NNE
Cosmos 2181 Rocket 4.4 22:55:33 10° N 23:01:49 56° ENE 23:05:59 22° SSE
Okean 1-7 4.3 22:59:27 10° N 23:03:13 28° ENE 23:05:22 19° ESE
H-2A R/B 3.0 23:00:41 15° SSW 23:04:50 42° W 23:09:59 10° NNW
Cosmos 220 Rocket 4.0 23:02:18 20° SSW 23:05:19 77° ESE 23:09:47 10° NNE
Cosmos 1980 3.7 23:00:51 10° NNW 23:06:31 78° WSW 23:10:00 24° SSE
BREEZE-M DEB (TANK) 2.6 23:04:34 10° W 23:06:36 41° SSW 23:07:06 37° S
Cosmos 1386 Rocket 4.4 23:04:48 19° S 23:09:21 88° E 23:15:24 10° N
ATLAS 3B R/B 3.0 23:02:21 10° NW 23:09:30 67° NE 23:15:00 16° SE
Cosmos 1703 4.0 23:07:25 16° SSW 23:10:22 49° WNW 23:14:12 10° N
Cosmos 1271 Rocket 4.2 23:09:09 10° NNW 23:12:28 28° W 23:14:50 16° SW
Cosmos 2219 4.1 23:06:55 10° SW 23:12:30 49° NW 23:18:05 10° NNE
Cosmos 1269 Rocket 4.3 23:07:18 10° NNW 23:12:36 62° ENE 23:15:49 24° SE
NOSS 0 Rocket 4.2 23:07:32 10° NW 23:13:36 60° WSW 23:17:23 23° S
NOSS 3-1 (C) 3.6 23:09:00 10° SW 23:15:00 81° NW 23:21:47 10° NE
Cosmos 990 Rocket 3.9 23:13:26 21° SSW 23:16:56 76° ESE 23:22:06 10° NNE
Cosmos 2237 Rocket 2.3 23:14:18 10° NNW 23:19:59 68° WSW 23:23:15 26° S
Cosmos 389 Rocket 3.8 23:16:54 10° N 23:20:11 31° ENE 23:21:30 24° ESE
Cosmos 1933 3.3 23:18:36 10° N 23:22:40 74° E 23:24:22 33° SSE
Cosmos 2082 3.7 23:21:49 22° S 23:25:36 67° ESE 23:31:18 10° NNE
Cosmos 1048 Rocket 4.0 23:38:17 10° NNW 23:43:41 88° ENE 23:46:28 29° SSE
CZ-4B R/B 1.9 23:43:58 36° SE 23:45:02 52° ENE 23:48:25 10° N
Cosmos 1125 Rocket 3.7 23:42:38 29° S 23:45:12 60° ESE 23:50:26 10° NNE
USA 234 4.0 23:40:01 10° E 23:46:18 52° NNE 23:52:37 10° NW
Cosmos 1689 Rocket 2.5 23:53:08 45° SE 23:53:53 61° ENE 23:57:10 10° N
Terra 4.1 23:51:53 10° SW 23:54:40 15° W 23:57:28 10° NW
Aureole 2 Rocket 3.3 23:53:19 10° N 23:56:09 35° ENE 23:57:03 28° E
